www.pogodaiklimat.ru

Погода и климат >> Архив погоды >> Австралия >> Западная Австралия >> Роборн аэропорт


ПОГОДА в Роборн аэропорту

  • Прогноз погоды в Роборн аэропорту
  • Монитор погоды в Роборн аэропорту

АРХИВ ПОГОДЫ в Роборн аэропорту

Время (UTC), дата Ветер
(напр.,м/с)
 
Видим.   Явления Облачность Т
(С)
Тd
(С)
f
(%)
Тe
(С)
Тes
(С)
Комфортность P
(гПа)
Po
(гПа)
Тmin
(С)
Tmax
(С)
R
(мм)
R24
(мм)
S
(см)
07 17.04 С 5 н/о н/о +35.9 +17.6 34 +39 +39 очень
душно
1011.1 1009.8
09 17.04 СЗ 6 н/о н/о +33.5 +19.6 44 +39 +39 очень
душно
1011.7 1010.4
10 17.04 СЗ 5 н/о н/о +31.1 +21.0 55 +39 +39 очень
душно
1012.1 1010.8
12 17.04 З 5 н/о н/о +29.2 +21.9 65 +38 +38 очень
душно
1013.6 1012.3
13 17.04 З 4 н/о н/о +28.5 +20.2 61 +35 +35 очень
душно
1013.8 1012.5 +36.4
15 17.04 З 5 н/о н/о +27.8 +20.4 64 +34 +34 очень
душно
1013.3 1012.0
16 17.04 З 4 н/о н/о +27.2 +19.3 62 +33 +33 очень
душно
1013.3 1012.0
18 17.04 З 5 н/о н/о +26.3 +17.9 60 +31 +31 душно 1012.7 1011.4
19 17.04 ЮЗ 5 н/о н/о +25.7 +17.9 62 +30 +30 душно 1012.6 1011.3
21 17.04 ЮЗ 3 н/о н/о +25.2 +16.6 59 +29 +29 душно 1012.6 1011.3
22 17.04 З 3 н/о н/о +24.4 +16.4 61 +28 +28 душно 1012.9 1011.6
00 18.04 З 4 н/о н/о +27.8 +16.4 50 +31 +31 душно 1013.8 1012.5
01 18.04 ЮЗ 5 н/о н/о +30.7 +15.9 41 +34 +34 очень
душно
1013.8 1012.5 +24.0
03 18.04 ЮЗ 6 н/о н/о +33.9 +15.4 33 +36 +36 душно 1013.0 1011.7
04 18.04 ЮЗ 5 н/о н/о +35.7 +14.9 29 +37 +37 душно 1012.0 1010.7
06 18.04 З 5 н/о н/о +37.3 +15.2 27 +39 +39 очень
душно
1010.1 1008.8
07 18.04 З 5 н/о н/о +36.9 +14.8 27 +38 +38 очень
душно
1010.0 1008.7
09 18.04 З 8 н/о н/о +34.5 +16.4 34 +37 +37 очень
душно
1009.9 1008.6
10 18.04 З 8 н/о н/о +32.2 +17.7 42 +36 +36 очень
душно
1010.6 1009.3
12 18.04 З 6 н/о н/о +29.6 +17.8 49 +34 +34 очень
душно
1012.1 1010.8
13 18.04 З 5 н/о н/о +28.8 +18.0 52 +33 +33 очень
душно
1012.7 1011.4 +37.6
15 18.04 З 7 н/о н/о +28.0 +18.1 55 +33 +33 очень
душно
1012.5 1011.2
16 18.04 З 6 н/о н/о +27.5 +18.2 57 +32 +32 очень
душно
1012.1 1010.8
18 18.04 ЮЗ 5 н/о н/о +26.8 +17.3 56 +31 +31 душно 1011.6 1010.3
19 18.04 ЮЗ 5 н/о н/о +26.6 +16.2 53 +30 +30 душно 1011.3 1010.0
21 18.04 ЮЗ 4 н/о н/о +25.5 +15.2 53 +28 +28 жарко 1011.7 1010.4
22 18.04 ЮЗ 4 н/о н/о +25.3 +15.0 53 +28 +28 жарко 1011.8 1010.5
00 19.04 ЮЗ 3 н/о н/о +27.7 +16.0 49 +31 +31 душно 1012.8 1011.5
01 19.04 Ю 4 н/о н/о +30.1 +15.8 42 +33 +33 душно 1013.1 1011.8 +25.3
03 19.04 З 4 н/о н/о +33.1 +15.6 35 +35 +35 душно 1012.1 1010.8
04 19.04 З 5 н/о н/о +34.6 +15.0 31 +36 +36 душно 1010.9 1009.6
06 19.04 ЮЗ 5 н/о н/о +36.2 +14.8 28 +37 +37 очень
жарко
1009.1 1007.8
07 19.04 ЮЗ 6 н/о н/о +36.0 +14.1 27 +37 +37 душно 1008.7 1007.4
09 19.04 З 6 н/о н/о +34.9 +13.7 28 +36 +36 душно 1009.0 1007.7
10 19.04 З 5 н/о н/о +33.3 +12.9 29 +34 +34 очень
жарко
1009.6 1008.3
12 19.04 З 5 н/о н/о +31.4 +13.2 33 +32 +32 жарко 1010.7 1009.4
13 19.04 З 5 н/о н/о +30.4 +12.8 34 +31 +31 жарко 1011.2 1009.9 +36.9
15 19.04 Ю 4 н/о н/о +27.6 +14.3 44 +30 +30 жарко 1011.4 1010.1
16 19.04 Ю 5 н/о н/о +27.4 +12.2 39 +29 +29 жарко 1011.7 1010.4
18 19.04 ЮЗ 3 н/о н/о +25.9 +11.6 41 +27 +27 жарко 1011.4 1010.1
19 19.04 Ю 2 н/о н/о +25.3 +12.2 44 +27 +27 жарко 1011.2 1009.9
21 19.04 Ю 3 н/о н/о +23.7 +12.7 50 +26 +26 жарко 1011.5 1010.2
22 19.04 Ю 3 н/о н/о +22.5 +12.7 54 +25 +25 комфорт 1011.7 1010.4
00 20.04 Ю 4 н/о н/о +27.3 +11.7 38 +28 +28 жарко 1013.1 1011.8
01 20.04 ЮВ 7 н/о н/о +29.1 +10.7 32 +29 +29 жарко 1013.6 1012.3 +22.3
03 20.04 ЮВ 7 н/о н/о +31.1 +11.5 30 +31 +31 жарко 1013.3 1012.0
04 20.04 В 7 н/о н/о +32.8 +12.4 29 +33 +33 жарко 1012.7 1011.4
06 20.04 ЮВ 7 н/о н/о +33.6 +11.5 26 +33 +33 жарко 1011.0 1009.7
07 20.04 В 6 н/о н/о +34.4 +12.1 26 +34 +34 очень
жарко
1010.9 1009.6
09 20.04 СВ 5 н/о н/о +32.4 +14.1 33 +34 +34 очень
жарко
1010.9 1009.6
10 20.04 В 5 н/о н/о +30.9 +11.8 31 +31 +31 жарко 1011.5 1010.2
12 20.04 В 5 н/о н/о +27.0 +10.7 36 +28 +28 жарко 1013.0 1011.7
13 20.04 В 4 н/о н/о +25.0 +11.6 43 +26 +26 жарко 1013.7 1012.4 +34.8
15 20.04 В 6 н/о н/о +25.6 +8.1 33 +26 +26 жарко 1014.1 1012.8
16 20.04 ЮВ 5 н/о н/о +25.2 +6.4 30 +25 +25 комфорт 1013.9 1012.6
18 20.04 ЮВ 4 н/о н/о +20.9 +6.1 38 +22 +22 комфорт 1014.0 1012.7
19 20.04 В 4 н/о н/о +21.5 +4.6 33 +22 +22 комфорт 1013.9 1012.6
21 20.04 В 7 н/о н/о +22.3 +1.3 25 +22 +22 комфорт 1014.2 1012.9
22 20.04 ЮВ 6 н/о н/о +21.8 +0.9 25 +21 +21 комфорт 1014.7 1013.4
00 21.04 ЮВ 6 н/о н/о +24.1 +2.3 24 +23 +23 комфорт 1016.3 1015.0
01 21.04 ЮВ 10 н/о н/о +25.2 +0.7 20 +24 +24 комфорт 1016.7 1015.4 +20.5
03 21.04 В 9 н/о н/о +27.8 +2.1 19 +26 +26 жарко 1015.8 1014.5
04 21.04 В 9 н/о н/о +29.4 +1.8 17 +27 +27 жарко 1014.9 1013.6
06 21.04 ЮВ 8 н/о н/о +31.0 +3.1 17 +29 +29 жарко 1013.4 1012.1
07 21.04 В 7 н/о н/о +31.0 +3.1 17 +29 +29 жарко 1013.1 1011.8
09 21.04 В 5 н/о н/о +30.0 +3.9 19 +28 +28 жарко 1012.8 1011.5
10 21.04 В 3 н/о н/о +26.3 +6.4 28 +26 +26 жарко 1013.2 1011.9
12 21.04 В 4 н/о н/о +21.5 +7.0 39 +22 +22 комфорт 1014.8 1013.5
13 21.04 ЮВ 4 н/о н/о +21.9 +4.5 32 +22 +22 комфорт 1015.2 1013.9 +31.9
15 21.04 ЮВ 5 н/о н/о +23.9 +0.3 21 +23 +23 комфорт 1015.0 1013.7
16 21.04 ЮВ 4 н/о н/о +20.1 +3.8 34 +21 +21 комфорт 1015.1 1013.8
18 21.04 ЮВ 6 н/о н/о +23.2 -1.7 19 +22 +22 комфорт 1015.0 1013.7
19 21.04 ЮВ 8 н/о н/о +22.5 -2.2 19 +21 +21 комфорт 1015.2 1013.9
21 21.04 ЮВ 4 н/о н/о +17.7 -0.1 30 +18 +18 1015.4 1014.1
22 21.04 ЮВ 3 н/о н/о +16.6 +1.1 35 +16 +16 1015.6 1014.3
00 22.04 ЮВ 7 н/о н/о +22.6 -2.2 19 +21 +21 комфорт 1016.4 1015.1
01 22.04 ЮВ 9 н/о н/о +24.8 -1.9 17 +23 +23 комфорт 1016.5 1015.2 +15.9
03 22.04 ЮВ 7 н/о н/о +28.8 -1.3 14 +26 +26 жарко 1015.4 1014.1
04 22.04 В 7 н/о н/о +30.4 -1.1 13 +27 +27 жарко 1014.6 1013.3
06 22.04 ЮВ 4 н/о н/о +32.5 +1.6 14 +29 +29 жарко 1013.0 1011.7
07 22.04 В 3 н/о н/о +33.4 +3.3 15 +31 +31 жарко 1012.6 1011.3
09 22.04 С 3 н/о н/о +30.0 +10.5 30 +30 +30 жарко 1013.0 1011.7
10 22.04 С 3 н/о н/о +26.4 +10.1 36 +27 +27 жарко 1013.5 1012.2
12 22.04 З 4 н/о н/о +24.9 +13.5 49 +27 +27 жарко 1015.0 1013.7
13 22.04 З 4 н/о н/о +25.5 +15.5 54 +29 +29 душно 1015.1 1013.8 +33.5
15 22.04 ЮЗ 3 н/о н/о +21.9 +14.8 64 +25 +25 комфорт 1015.1 1013.8
16 22.04 ЮЗ 3 н/о н/о +21.2 +14.8 67 +24 +24 комфорт 1014.9 1013.6
18 22.04 ЮЗ 3 н/о н/о +22.7 +14.5 60 +26 +26 жарко 1014.3 1013.0
19 22.04 ЮЗ 3 н/о н/о +23.0 +14.0 57 +26 +26 жарко 1013.9 1012.6
21 22.04 Ю 2 н/о н/о +19.9 +14.7 72 +23 +23 комфорт 1013.9 1012.6
22 22.04 В 4 н/о н/о +19.0 +13.8 72 +20 +20 1014.0 1012.7
00 23.04 В 6 н/о н/о +26.1 +4.6 25 +25 +25 комфорт 1015.0 1013.7
01 23.04 В 7 н/о н/о +27.4 +3.8 22 +26 +26 жарко 1015.4 1014.1 +18.2
03 23.04 ЮВ 7 н/о н/о +30.4 +4.9 20 +29 +29 жарко 1014.9 1013.6
04 23.04 В 7 н/о н/о +32.2 +5.7 19 +30 +30 жарко 1013.9 1012.6
06 23.04 В 6 н/о н/о +35.0 +5.4 16 +32 +32 жарко 1012.7 1011.4
07 23.04 СВ 5 н/о н/о +34.3 +5.8 17 +32 +32 жарко 1012.5 1011.2
09 23.04 С 2 н/о н/о +33.0 +7.8 21 +31 +31 жарко 1012.9 1011.6
10 23.04 СЗ 2 н/о н/о +31.3 +8.9 25 +30 +30 жарко 1013.4 1012.1
12 23.04 ЮЗ 3 н/о н/о +25.7 +13.2 46 +28 +28 жарко 1014.8 1013.5
13 23.04 ЮЗ 2 н/о н/о +25.4 +13.9 49 +28 +28 жарко 1015.1 1013.8 +35.9
15 23.04 Ю 3 н/о н/о +22.6 +13.9 58 +26 +26 жарко 1014.7 1013.4
16 23.04 ЮЗ 2 н/о н/о +22.9 +12.2 51 +26 +26 жарко 1014.8 1013.5
18 23.04 ЮЗ 2 н/о н/о +21.4 +12.8 58 +24 +24 комфорт 1014.4 1013.1
19 23.04 ЮЗ 4 н/о н/о +21.9 +11.6 52 +24 +24 комфорт 1014.0 1012.7
21 23.04 штиль 0 н/о н/о +19.1 +12.8 67 +20 +20 1014.2 1012.9
22 23.04 ЮВ 2 н/о н/о +18.7 +12.5 67 +20 +20 1014.9 1013.6
00 24.04 Ю 3 н/о н/о +27.3 +11.3 37 +28 +28 жарко 1016.1 1014.8
01 24.04 ЮВ 8 н/о н/о +30.5 +7.7 24 +29 +29 жарко 1016.1 1014.8 +18.7
03 24.04 В 9 н/о н/о +34.3 +4.9 16 +32 +32 жарко 1015.3 1014.0
04 24.04 В 8 н/о н/о +35.2 +6.5 17 +33 +33 жарко 1014.4 1013.1
06 24.04 СВ 6 н/о н/о +35.7 +8.5 19 +34 +34 очень
жарко
1013.2 1011.9
07 24.04 СВ 6 н/о н/о +35.1 +9.5 21 +34 +34 очень
жарко
1012.9 1011.6

 

Местоположение метеостанции Роборн аэропорт (Западная Австралия, Австралия): широта -20.75 долгота 117.15 высота над уровнем моря 11 м.

В архиве по умолчанию представлена погода в Роборн аэропорту за последнюю неделю. Архивные данные за месяц целиком и за предыдущие месяцы, начиная с января 2011 года, Вы можете получить, выбрав интересующий диапазон дат из раскрывающегося списка и нажав кнопку "Ввод!".


*Определитесь, кто Вы:
робот инопланетянин человек

Внимание! Время в таблицах - всемирное. Для получения местного времени необходимо прибавить поправку, которая равна 8 ч.

Смотрите также архив погоды в соседних городах и на ближайших метеорологических станциях:

Погода в Каррате (Западная Австралия, Австралия) (40 км)
Погода в Марди (Западная Австралия, Австралия) (132 км)
Погода в Порт-Хедленде Apardoo (Западная Австралия, Австралия) (160 км)
Погода на Острове Варанас (Западная Австралия, Австралия) (165 км)
Погода в Барроу-Айленд (Западная Австралия, Австралия) (183 км)
Погода в Онслоу (Западная Австралия, Австралия) (234 км)
Погода на Острове Тевенард (Западная Австралия, Австралия) (234 км)
Погода в Марбл-баре (Западная Австралия, Австралия) (274 км)
Погода в Параберду (Западная Австралия, Австралия) (276 км)
Погода в Лермонте (Западная Австралия, Австралия) (358 км)

Пояснения к столбцам:

Ветер - указаны скорость ветра в м/с - средняя за 10 мин, порывы в срок и между сроками (в фигурных скобках) и направление, откуда дует ветер: С - северный, СВ - северо-восточный, В - восточный, ЮВ - юго-восточный, Ю - южный, ЮЗ - юго-западный, З - западный, СЗ - северо-западный.
Видимость - горизонтальная дальность видимости в метрах или километрах. При видимости от 1 до 10 км при отсутствии осадков обычно наблюдается дымка, при ухудшении видимости до 1 км и менее - туман. В сухую погоду видимость может ухудшаться дымом, пылью или мглою.
Явления - указаны атмосферные явления, наблюдавшиеся в срок или в последний час перед сроком; фигурными скобками обозначены явления, наблюдавшиеся между сроками (за 1-3 часа до срока); квадратными скобками обозначены град или гололедные отложения с указанием их диаметра в мм.
Облачность - указаны через наклонную черту общая и нижняя облачность в баллах и высота нижней границы облаков в метрах; квадратными скобками обозначены формы облаков: Ci - перистые, Cs - перисто-слоистые, Cc - перисто-кучевые, Ac - высококучевые, As - высокослоистые, Sc - слоисто-кучевые, Ns - слоисто-дождевые, Cu - кучевые, Cb - кучево-дождевые. Подробнее классификацию облаков см. в Атласе облаков (PDF).
T - Температура воздуха - температура, измеренная на высоте 2 м над землей.
Td - Температура точки росы - температура, при понижении до которой содержащийся в воздухе водяной пар достигнет насыщения.
f - Относительная влажность воздуха - влажноcть воздуха, измеренная на высоте 2 м над землей.
Te - Эффективная температура - температура, которую ощущает одетый по сезону человек в тени. Характеристика душности погоды. При расчете учитывается влияние влажности воздуха и скорости ветра на теплоощущения человека.
Tes - Эффективная температура на солнце - температура, которую ощущает человек, с поправкой на солнечный нагрев. Характеристика знойности погоды. Зависит от высоты солнца над горизонтом, облачности и скорости ветра. Ночью, в пасмурную погоду, а также при ветре 12 м/с и более поправка равна нулю.
P - Атмосферное давление - приведенное к уровню моря атмосферное давление.
Po - Атмосферное давление - измеренное на уровне метеостанции атмосферное давление.
Tmin - Минимальная температура - минимум температуры воздуха на высоте 2 м над землей.
Tmax - Максимальная температура - максимум температуры воздуха на высоте 2 м над землей.
R - Количество осадков - Количество выпавших осадков за период времени, мм. При наведении курсора мыши на число - период времени, за который выпало указанное количество осадков.
R24 - Количество осадков - Количество выпавших осадков за 24 часа, мм.
S - Снежный покров - Высота снежного покрова, см. При наведении курсора мыши на число - состояние снежного покрова и степень покрытия местности в баллах.